Regional Weather Roundup
Issued by NWS

Home | Current Version | Previous Version | Graphics & Text | Print | Product List | Glossary On
Versions: 1 2 3 4 5 6 7 8 9 10 11 12 13 14 15 16 17 18 19 20 21 22 23 24 25 26 27 28 29 30 31 32 33 34 35 36 37 38 39 40 41 42 43 44 45 46 47 48 49 50
000
ASUS43 KMPX 152310
RWRMN
WEATHER ROUNDUP FOR MINNESOTA
NATIONAL WEATHER SERVICE TWIN CITIES/CHANHASSEN MN
500 PM CST MON JAN 15 2018


NOTE: "FAIR" INDICATES FEW OR NO CLOUDS BELOW 12,000 FEET WITH NO
SIGNIFICANT WEATHER AND/OR OBSTRUCTIONS TO VISIBILITY. N/A MEANS
CURRENT SKY AND/OR WEATHER CONDITIONS ARE NOT AVAILABLE.

MNZ060>063-068>070-160000-
   Twin Cities Metro

CITY           SKY/WX    TMP DP  RH WIND       PRES   REMARKS
TWIN CITIES    FAIR       3  -4  72 NW13      30.47R WCI -14
ST PAUL        FAIR       4  -3  73 NW14      30.49R WCI -14
CRYSTAL        FAIR       3  -8  60 NW12      30.47R WCI -13
BLAINE         MOCLDY     5  -4  66 NW12      30.46R WCI -11
LAKEVILLE      FAIR       1  -6  71 NW12G18   30.46R WCI -15
EDEN PRAIRIE   FAIR       3  -6  66 NW10      30.47R WCI -12
SOUTH ST PAUL  MOCLDY     5  -3  68 NW8       30.47R WCI  -8
LAKE ELMO      FAIR       5  -2  72 NW10      30.46R WCI -10
$$
MNZ001>005-007-008-013>017-022>024-027-028-160000-
   Northwest Minnesota

CITY           SKY/WX    TMP DP  RH WIND       PRES   REMARKS
BEMIDJI        CLOUDY    -4 -11  73 NW9       30.59R WCI -21
HALLOCK        CLOUDY    -8 -13  77 N21G26    30.80R HAZE    WCI -32
ROSEAU         FAIR      -6 -11  77 N10       30.73R WCI -23
WARROAD        FAIR      -2  -9  71 N9        30.72R WCI -18
THIEF RVR FALL FAIR     -10 -17  71 N15       30.72  WCI -32
CROOKSTON      HAZE     -11 -17  77 N20       30.78R VSB 3/4 WCI -36
FOSSTON        FAIR      -9 -17  70 NW10      30.67R WCI -28
DETROIT LAKES  CLOUDY    -9 -15  77 NW15      30.63R HAZE    WCI -31
MOORHEAD       CLOUDY   -11 -17  77 N18G24    30.75R HAZE    WCI -36
PARK RAPIDS    CLOUDY    -5 -13  68 N10       30.56R WCI -23
MAHNOMEN       CLOUDY   -11 -16  77 NW15      30.67R WCI -33
$$
MNZ006-009>011-018-025>026-160000-
   North Central Minnesota

CITY           SKY/WX    TMP DP  RH WIND       PRES   REMARKS
BAUDETTE       CLOUDY    -4 -10  75 N14       30.64R WCI -24
FLAG ISLAND    FAIR      -4  -9  77 NW15      30.71R WCI -25
INTL FALLS     CLOUDY     1  -7  68 N9        30.61R WCI -14
WASKISH        CLOUDY    -4  -9  77 N7        30.64R WCI -18
BIG FORK       CLOUDY     1  -4  78 N7        30.56R WCI -11
LONGVILLE      MOCLDY    -2  -9  71 NW6       30.55R WCI -14
GRAND RAPIDS   CLOUDY     2  -3  80 N14       30.54R WCI -16
CRANE LAKE     CLOUDY     1  -2  85 N7        30.59R WCI -11
ORR            CLOUDY     1  -6  71 NW6       30.52R WCI -10
COOK           CLOUDY     3   0  85 N5        30.53R WCI  -6
WALKER         FAIR      -5 -12  72 NW12      30.57R WCI -23
$$
MNZ012-019>021-037-160000-
   Northeast Minnesota

CITY           SKY/WX    TMP DP  RH WIND       PRES   REMARKS
DULUTH         LGT SNOW   7   3  84 N16G25    30.40R BLWGSNOWWCI -11
ELY            LGT SNOW   5   1  85 N6        30.49R WCI  -6
HIBBING        CLOUDY     2  -3  80 N14       30.48R WCI -16
EVELETH        MOCLDY     3  -3  74 N8        30.49R HAZE    WCI -10
DULUTH HARBOR  CLOUDY    16   9  73 NW14G21   30.48R WCI   1
TWO HARBORS    LGT SNOW  14   7  73 N9G21     30.40R WCI   2
SILVER BAY     FAIR      12   7  79 VRB10G16  30.40  WCI  -1
GRAND MARAIS     N/A     19  11  70 NE9G22    30.45R WCI   8
G MARAIS ARPRT LGT SNOW  10   5  79 N12       30.38R WCI  -4
$$
MNZ029>031-032-039>041-046>048-054>057-064-160000-
   West Central Minnesota

CITY           SKY/WX    TMP DP  RH WIND       PRES   REMARKS
FERGUS FALLS   FAIR     -13 -18  77 N17G30    30.70R WCI -38
WHEATON        MOCLDY   -11 -18  70 NW18      30.72R WCI -36
MORRIS         PTCLDY    -9 -17  70 NW24G36   30.61R WCI -36
ALEXANDRIA     FAIR      -9 -16  71 NW17G23   30.54R WCI -32
ELBOW LAKE     MOCLDY   -12 -18  77 W18G24    30.63R HAZE    WCI -37
WADENA         FAIR      -6 -15  65 NW10      30.56R WCI -23
GLENWOOD       FAIR      -8 -15  71 NW18      30.55R HAZE    WCI -31
APPLETON       MOCLDY    -8 -17  65 NW16G26   30.65R WCI -30
BENSON         CLOUDY    -9 -17  70 N22       30.61R WCI -35
ORTONVILLE     PTCLDY    -9 -18  64 NW22G28   30.65R WCI -35
MADISON        MOCLDY    -6 -13  71 N22       30.65R HAZE    WCI -31
WILLMAR        FAIR      -8 -15  71 NW17      30.58R WCI -31
$$
MNZ033>034-036-042>043-049>051-058-059-160000-
   Central Minnesota

CITY           SKY/WX    TMP DP  RH WIND       PRES   REMARKS
ST CLOUD       CLOUDY     1  -7  68 N12G22    30.50R WCI -16
SAUK CENTRE      N/A     -6 -13  70 NW15      30.53R WCI -27
PAYNESVILLE    FAIR      -4 -11  73 NW14G20   30.53R WCI -24
AITKIN         CLOUDY     1  -6  71 N12       30.50R WCI -15
PINE RIVER     MOCLDY    -2  -9  71 N8        30.55R WCI -17
BRAINERD       FAIR      -1 -10  65 N15       30.52R WCI -21
STAPLES        FAIR      -4 -11  71 NW12      30.54R WCI -22
LONG PRAIRIE   FAIR      -4 -13  65 W12       30.53R WCI -22
LITTLE FALLS   FAIR       1 -13  51 N8        30.53R WCI -12
LITCHFIELD     FAIR      -2  -9  71 NW8G21    30.52R WCI -17
BUFFALO        MOCLDY     2  -6  69 NW9       30.51R WCI -12
MAPLE LAKE     FAIR       3  -4  72 MISG      30.51R
HUTCHINSON     FAIR       0  -7  73 NW17G23   30.51R WCI -21
$$
MNZ037-044-045-052-053-160000-
   East Central Minnesota

CITY           SKY/WX    TMP DP  RH WIND       PRES   REMARKS
PRINCETON      CLOUDY     3  -6  66 NW10G16   30.48R WCI -12
MORA           FAIR       7   0  72 N7        30.48R WCI  -5
CAMBRIDGE      FLURRIES   7  -4  61 NW8       30.48R WCI  -6
RUSH CITY      MOCLDY     5  -3  68 NW6       30.46R WCI  -6
MOOSE LAKE     LGT SNOW   9   1  72 N8G22     30.45R WCI  -4
HINCKLEY       FAIR       9   1  72 N9        30.45R WCI  -5
CLOQUET        LGT SNOW   7   1  78 NW18      30.43R WCI -12
MCGREGOR       CLOUDY     5   0  78 N15       30.49R WCI -13
$$
MNZ071>073-080-081-089-090-097-098-160000-
   Southwest Minnesota

CITY           SKY/WX    TMP DP  RH WIND       PRES   REMARKS
MONTEVIDEO     CLOUDY    -9 -17  70 N21G26    30.62R WCI -35
GRANITE FALLS  CLEAR     -7 -14  70 NW20G25   30.63R WCI -31
CANBY          CLEAR     -6 -13  71 W17G26    30.64R WCI -28
MARSHALL       MOCLDY    -9 -15  75 N22G32    30.59R WCI -35
REDWOOD FALLS  CLOUDY    -8 -15  71 NW14G25   30.57R WCI -29
OLIVIA         MOCLDY    -6 -11  77 NW20G28   30.57R WCI -29
PIPESTONE      PTCLDY    -6 -13  71 N23G31    30.52R WCI -31
WINDOM         CLOUDY    -8 -20  54 NW20G28   30.52R HAZE    WCI -32
WORTHINGTON    CLOUDY    -5 -11  75 N22       30.52R HAZE    WCI -30
JACKSON        CLOUDY    -8 -15  71 NW20G30   30.51R HAZE    WCI -32
SLAYTON        PTCLDY    -6 -12  74 NW16G26   30.52R WCI -28
$$
MNZ065>067-074>077-082>085-091>093-160000-
   South Central Minnesota

CITY           SKY/WX    TMP DP  RH WIND       PRES   REMARKS
MANKATO        LGT SNOW  -3  -9  75 NW18      30.50R WCI -25
NEW ULM        MOCLDY    -6 -15  65 NW18G26   30.54R WCI -29
ST JAMES       CLOUDY    -6 -11  77 NW21      30.55R HAZE    WCI -30
FAIRMONT       CLEAR     -6 -12  75 MISG      30.52R HAZE
GLENCOE        MOCLDY     1  -6  71 NW13G18   30.50R WCI -16
FARIBAULT      CLOUDY     1  -6  71 NW8G20    30.45R WCI -12
OWATONNA       MOCLDY     0  -6  78 NW16      30.44R WCI -21
WASECA         FAIR       0  -6  78 NW17      30.48R WCI -21
ALBERT LEA     HAZE       0  -8  71 NW10G20   30.43R VSB 1   WCI -17
$$
MNZ078>079-086>088-094>096-160000-
   Southeast Minnesota

CITY           SKY/WX    TMP DP  RH WIND       PRES   REMARKS
ROCHESTER      MIX PCPN   2  -3  80 NW22      30.37R WCI -20
RED WING       LGT SNOW   7  -2  66 NW9       30.44R WCI  -7
STANTON        FAIR       3  -5  68 NW9       30.45R WCI -11
DODGE CENTER   CLOUDY     1  -6  71 NW17      30.39R WCI -19
WINONA         CLOUDY    10   3  72 NW8         N/A  WCI  -1
AUSTIN         CLOUDY     0  -8  71 NW15G26   30.41R WCI -20
PRESTON        CLOUDY     1  -5  76 NW15      30.36R HAZE    WCI -18
$$
ABBREVIATIONS USED IN REMARKS
   TC - TEMPERATURES IN CELSIUS
  WCI - WIND CHILL INDEX
   HX - HEAT INDEX
  VSB - VISIBILITY
$$




USA.gov is the U.S. government's official web portal to all federal, state and local government web resources and services.